Tracking 18843 objects as of 21-November-2017
HD Live streaming from Space Station
objects crossing your sky now

OPS 9312 (IDSCS 2)

Track OPS 9312 (IDSCS 2) now!
OPS 9312 (IDSCS 2) is classified as:


NORAD ID: 2216
Int'l Code: 1966-053C
Perigee: 33,667.9 km
Apogee: 33,921.6 km
Inclination: 3.1 °
Period: 1,335.2 minutes
Semi major axis: 40165 km
RCS: 0.3162 m2 (medium)
Launch date: June 16, 1966
Source: United States (US)
Launch site: AIR FORCE EASTERN TEST RANGE (AFETR)
aabbcc
Your satellite tracking list
Your tracking list is empty




NASA's NSSDC Master Catalog

Two Line Element Set (TLE):
1  2216U 66053C   17324.50991056 -.00000048 +00000-0 +00000-0 0  9996
2  2216 003.1048 059.1259 0031578 148.7009 201.9130 01.07849881015494
Source of the keplerian elements: AFSPC